This is the latest recevied weather packets stored in our database for station/object K8RRT. If no packets are shown the sender has not sent any weather packets the latest 10 day(s).
| Time | Temp. | Humidity | Pressure | Rain* | Wind** | Luminosity | Snow |
|---|---|---|---|---|---|---|---|
| 1778022076 | 22.78° C | 47% | 1005 hPa | 0 mm | - | 22 W/m² | - |
| 1778021772 | 22.78° C | 47% | 1004.9 hPa | 0 mm | - | 31 W/m² | - |
| 1778021468 | 22.78° C | 47% | 1005.3 hPa | 0 mm | - | 25 W/m² | - |
| 1778021165 | 22.78° C | 48% | 1005.2 hPa | 0 mm | - | 22 W/m² | - |
| 1778020863 | 22.78° C | 47% | 1005.2 hPa | 0 mm | - | 28 W/m² | - |
| 1778020560 | 23.33° C | 47% | 1005.1 hPa | 0 mm | - | 44 W/m² | - |
| 1778020256 | 23.33° C | 48% | 1005.2 hPa | 0 mm | - | 69 W/m² | - |
| 1778019953 | 23.33° C | 46% | 1005.2 hPa | 0 mm | - | 89 W/m² | - |
| 1778019649 | 23.33° C | 47% | 1005.1 hPa | 0 mm | - | 98 W/m² | - |
| 1778019346 | 23.33° C | 49% | 1005.1 hPa | 0 mm | - | 95 W/m² | - |
| 1778019042 | 23.33° C | 47% | 1005.2 hPa | 0 mm | - | 90 W/m² | - |
| 1778018740 | 23.33° C | 48% | 1005 hPa | 0 mm | - | 105 W/m² | - |
| 1778018437 | 23.33° C | 48% | 1005 hPa | 0 mm | - | 95 W/m² | - |
| 1778018135 | 23.33° C | 48% | 1005 hPa | 0 mm | - | 96 W/m² | - |
| 1778017833 | 23.33° C | 48% | 1005 hPa | 0 mm | - | 112 W/m² | - |
| 1778017531 | 23.89° C | 49% | 1005.2 hPa | 0 mm | - | 113 W/m² | - |
| 1778017227 | 24.44° C | 47% | 1005 hPa | 0 mm | - | 170 W/m² | - |
| 1778016925 | 23.89° C | 48% | 1005.2 hPa | 0 mm | - | 196 W/m² | - |
| 1778016621 | 24.44° C | 49% | 1005.1 hPa | 0 mm | - | 233 W/m² | - |
| 1778016318 | 23.89° C | 47% | 1005.2 hPa | 0 mm | - | 321 W/m² | - |
| 1778016015 | 23.89° C | 48% | 1005.1 hPa | 0 mm | - | 322 W/m² | - |
| 1778015712 | 23.89° C | 48% | 1005.1 hPa | 0 mm | - | 265 W/m² | - |
| 1778015409 | 23.89° C | 50% | 1005.3 hPa | 0 mm | - | 236 W/m² | - |
| 1778015105 | 23.89° C | 49% | 1005.1 hPa | 0 mm | - | 219 W/m² | - |
| 1778014802 | 23.89° C | 49% | 1005.4 hPa | 0 mm | - | 172 W/m² | - |
* Rain latest hour (hover to see other rain measurements)
** Current wind speed in m/s (hover to see current wind gust speed)